Albemarle, NC

1:47 PM EDT on May 27, 2018 (GMT -0400)
Stanly County

Weather History for KVUJ - January, 2013

Change the Weather History Date:

Friday, January 4, 2013

  Actual Average (WUND) Record (WUND)
Temperature  
Mean Temperature 36 °F -  
Max Temperature 50 °F - - (-1)
Min Temperature 22 °F - - (-1)
Degree Days  
Heating Degree Days 29    
Moisture  
Dew Point 25 °F    
Average Humidity 68    
Maximum Humidity 100    
Minimum Humidity 34    
Precipitation  
Precipitation 0.00 in - - ()
Sea Level Pressure  
Sea Level Pressure 30.32 in    
Wind  
Wind Speed 2 mph (WNW)    
Max Wind Speed 10 mph    
Max Gust Speed -    
Visibility 10 miles    
Events      
Averages and records for this station are not official NWS values.
T = Trace of Precipitation, MM = Missing Value Source: NWS Daily Summary

Daily Weather History Graph

Daily Weather History Graph

Search for Another Location

Airport or City:

Astronomy

Jan. 04, 2013 Rise Set
Actual Time 7:30 AM EST 5:21 PM EST
Civil Twilight 7:02 AM EST 5:49 PM EST
Nautical Twilight 6:30 AM EST 6:21 PM EST
Astronomical Twilight 5:59 AM EST 6:52 PM EST
Moon No Moon Rise 11:28 AM EST (1/4)
Length of Visible Light 10h 47m
Length of Day
9h 51m
Waning Gibbous, 55% of the Moon is Illuminated
Jan 4
Waning Gibbous
Jan 4
Last Quarter
Jan 11
New
Jan 18
First Quarter
Jan 26
Full

Hourly Weather History & Observations

Time (EST) Temp. Windchill Dew Point Humidity Pressure Visibility Wind Dir Wind Speed Gust Speed Precip Events Conditions
12:15 AM 27.5 °F - 27.3 °F 99% 30.30 in 10.0 mi Calm Calm - N/A   Clear
12:35 AM 27.1 °F - 26.8 °F 99% 30.30 in 10.0 mi Calm Calm - N/A   Clear
12:55 AM 27.5 °F - 27.3 °F 99% 30.30 in 7.0 mi Calm Calm - N/A   Clear
1:15 AM 27.1 °F - 26.2 °F 96% 30.30 in 10.0 mi Calm Calm - N/A   Clear
1:35 AM 26.4 °F - 25.9 °F 98% 30.31 in 10.0 mi Calm Calm - N/A   Clear
1:55 AM 26.8 °F - 26.4 °F 99% 30.32 in 7.0 mi Calm Calm - N/A   Clear
2:15 AM 25.7 °F - 25.3 °F 99% 30.32 in 10.0 mi Calm Calm - N/A   Clear
2:35 AM 25.7 °F - 24.8 °F 96% 30.32 in 10.0 mi Calm Calm - N/A   Clear
2:55 AM 25.3 °F - 24.1 °F 95% 30.32 in 10.0 mi Calm Calm - N/A   Clear
3:15 AM 25.0 °F - 24.6 °F 99% 30.32 in 10.0 mi Calm Calm - N/A   Clear
3:35 AM 25.3 °F - 24.6 °F 97% 30.31 in 10.0 mi Calm Calm - N/A   Clear
3:55 AM 25.0 °F - 24.3 °F 97% 30.32 in 10.0 mi Calm Calm - N/A   Scattered Clouds
4:15 AM 24.8 °F - 24.8 °F 100% 30.31 in 10.0 mi Calm Calm - N/A   Scattered Clouds
6:35 AM 23.2 °F - 22.1 °F 96% 30.33 in 10.0 mi Calm Calm - N/A   Clear
6:55 AM 22.3 °F - 21.2 °F 96% 30.33 in 10.0 mi Calm Calm - N/A   Clear
7:15 AM 22.1 °F - 21.0 °F 96% 30.34 in 10.0 mi Calm Calm - N/A   Clear
7:35 AM 22.5 °F - 21.4 °F 96% 30.35 in 10.0 mi Calm Calm - N/A   Clear
7:55 AM 22.1 °F - 20.8 °F 95% 30.35 in 10.0 mi Calm Calm - N/A   Clear
8:15 AM 24.8 °F - 23.0 °F 93% 30.35 in 10.0 mi Calm Calm - N/A   Clear
8:35 AM 26.1 °F - 25.2 °F 96% 30.36 in 10.0 mi Calm Calm - N/A   Clear
8:55 AM 28.8 °F - 28.0 °F 97% 30.36 in 10.0 mi Calm Calm - N/A   Clear
9:15 AM 32.5 °F - 31.3 °F 95% 30.37 in 10.0 mi Calm Calm - N/A   Clear
9:35 AM 35.1 °F - 29.8 °F 81% 30.37 in 10.0 mi Calm Calm - N/A   Clear
9:55 AM 37.4 °F 32.1 °F 28.2 °F 69% 30.38 in 10.0 mi North 6.9 mph - N/A   Clear
10:15 AM 37.9 °F 32.7 °F 25.5 °F 61% 30.38 in 10.0 mi NNW 6.9 mph - N/A   Clear
10:35 AM 39.9 °F 33.4 °F 26.6 °F 59% 30.37 in 10.0 mi NNW 10.4 mph - N/A   Clear
10:55 AM 41.0 °F 37.1 °F 26.2 °F 56% 30.37 in 10.0 mi NW 5.8 mph - N/A   Clear
11:15 AM 42.6 °F 39.9 °F 26.6 °F 53% 30.36 in 10.0 mi NW 4.6 mph - N/A   Clear
11:35 AM 43.7 °F 42.1 °F 26.6 °F 51% 30.34 in 10.0 mi North 3.5 mph - N/A   Clear
11:55 AM 45.0 °F 41.8 °F 25.7 °F 47% 30.33 in 10.0 mi WNW 5.8 mph - N/A   Clear
12:15 PM 46.6 °F - 26.1 °F 45% 30.32 in 10.0 mi WNW 9.2 mph - N/A   Clear
12:35 PM 47.5 °F - 25.7 °F 43% 30.31 in 10.0 mi West 8.1 mph - N/A   Clear
12:55 PM 48.2 °F - 25.2 °F 41% 30.30 in 10.0 mi WNW 8.1 mph - N/A   Clear
1:15 PM 48.4 °F - 25.0 °F 40% 30.28 in 10.0 mi WSW 6.9 mph - N/A   Clear
1:35 PM 49.8 °F - 26.2 °F 40% 30.28 in 10.0 mi WSW 9.2 mph - N/A   Clear
1:55 PM 49.8 °F - 25.3 °F 39% 30.27 in 10.0 mi WSW 10.4 mph - N/A   Clear
2:15 PM 50.0 °F - 24.6 °F 37% 30.26 in 10.0 mi WSW 9.2 mph - N/A   Clear
2:35 PM 50.0 °F - 24.4 °F 37% 30.25 in 10.0 mi WNW 6.9 mph - N/A   Clear
2:55 PM 50.0 °F - 23.7 °F 36% 30.25 in 10.0 mi SW 4.6 mph - N/A   Clear
3:15 PM 50.5 °F - 24.3 °F 36% 30.25 in 10.0 mi WSW 6.9 mph - N/A   Clear
3:35 PM 50.7 °F - 22.8 °F 34% 30.25 in 10.0 mi West 6.9 mph - N/A   Clear
3:55 PM 50.4 °F - 22.6 °F 34% 30.27 in 10.0 mi WNW 6.9 mph - N/A   Clear
4:15 PM 50.0 °F - 22.6 °F 34% 30.26 in 10.0 mi West 3.5 mph - N/A   Clear
4:35 PM 49.5 °F - 22.3 °F 34% 30.25 in 10.0 mi West 3.5 mph - N/A   Scattered Clouds
4:55 PM 48.6 °F - 22.6 °F 36% 30.26 in 10.0 mi WSW 3.5 mph - N/A   Scattered Clouds
5:15 PM 47.1 °F - 23.2 °F 39% 30.26 in 10.0 mi Calm Calm - N/A   Mostly Cloudy
5:35 PM 45.3 °F - 24.6 °F 44% 30.28 in 10.0 mi Calm Calm - N/A   Overcast
5:55 PM 46.0 °F - 24.1 °F 42% 30.28 in 10.0 mi Calm Calm - N/A   Overcast
6:15 PM 43.5 °F - 27.5 °F 53% 30.29 in 10.0 mi Calm Calm - N/A   Overcast
6:35 PM 43.9 °F - 26.4 °F 50% 30.29 in 10.0 mi Calm Calm - N/A   Overcast
6:55 PM 42.1 °F 40.2 °F 27.0 °F 55% 30.30 in 10.0 mi West 3.5 mph - N/A   Scattered Clouds
7:15 PM 42.3 °F - 24.8 °F 50% 30.31 in 10.0 mi Calm Calm - N/A   Clear
7:35 PM 43.0 °F 41.3 °F 23.9 °F 47% 30.33 in 10.0 mi NNW 3.5 mph - N/A   Clear
7:55 PM 39.4 °F - 26.1 °F 59% 30.33 in 10.0 mi Calm Calm - N/A   Clear
8:15 PM 35.4 °F - 27.0 °F 71% 30.33 in 10.0 mi Calm Calm - N/A   Clear
8:35 PM 35.8 °F 33.0 °F 25.7 °F 67% 30.34 in 10.0 mi North 3.5 mph - N/A   Clear
8:55 PM 39.2 °F 37.0 °F 20.5 °F 47% 30.34 in 10.0 mi NNW 3.5 mph - N/A   Clear
9:15 PM 36.0 °F - 23.0 °F 59% 30.34 in 10.0 mi Calm Calm - N/A   Clear
9:35 PM 31.5 °F 26.8 °F 24.8 °F 76% 30.35 in 10.0 mi North 4.6 mph - N/A   Clear
9:55 PM 31.1 °F - 23.9 °F 75% 30.36 in 10.0 mi Calm Calm - N/A   Clear
10:15 PM 30.9 °F - 23.5 °F 74% 30.36 in 10.0 mi Calm Calm - N/A   Clear
10:35 PM 29.1 °F - 25.2 °F 85% 30.37 in 10.0 mi Calm Calm - N/A   Clear
10:55 PM 29.8 °F - 22.8 °F 75% 30.37 in 10.0 mi Calm Calm - N/A   Clear
11:15 PM 28.2 °F - 22.8 °F 80% 30.37 in 10.0 mi Calm Calm - N/A   Clear
11:35 PM 28.0 °F - 22.3 °F 79% 30.36 in 10.0 mi Calm Calm - N/A   Clear
11:55 PM 25.9 °F - 22.1 °F 86% 30.34 in 10.0 mi Calm Calm - N/A   Clear